Location: Rotheul
(50.2849°N, 11.2349°E)
Time: 07:11:39
(UTC+02:00)

ISS - Visible Passes

Search period start: 22 July 2018 00:00
Search period end: 01 August 2018 00:00
Orbit: 402 x 408 km, 51.6° (Epoch: 22 July)

Date Brightness Start Highest point End Pass type
(mag) Time Alt. Az. Time Alt. Az. Time Alt. Az.
22 Jul -3.6 00:31:25 10° W 00:34:42 69° N 00:38:00 10° E visible
22 Jul -3.9 02:08:01 10° WNW 02:11:19 90° E 02:14:37 10° ESE visible
22 Jul -2.9 03:44:43 10° W 03:47:34 27° SW 03:50:24 10° SSE visible
22 Jul -3.2 22:03:09 10° SW 22:06:11 36° SSE 22:09:14 10° E visible
22 Jul -3.7 23:39:16 10° W 23:42:32 78° NNW 23:45:51 10° ENE visible
23 Jul -3.7 01:15:53 10° WNW 01:19:11 75° N 01:20:52 26° E visible
23 Jul -1.8 02:52:28 10° W 02:53:21 17° W 02:53:21 17° W visible
23 Jul -3.9 22:47:07 10° WSW 22:50:24 85° SSE 22:53:42 10° ENE visible
24 Jul -3.5 00:23:43 10° W 00:27:00 67° N 00:29:10 20° E visible
24 Jul -2.2 02:00:16 10° WNW 02:01:45 24° W 02:01:45 24° W visible
24 Jul -3.8 21:55:03 10° WSW 21:58:17 62° SSE 22:01:33 10° ENE visible
24 Jul -3.5 23:31:32 10° W 23:34:49 67° N 23:38:06 10° E visible
25 Jul -3.5 01:08:06 10° WNW 01:10:47 55° W 01:10:47 55° W visible
25 Jul -3.6 22:39:20 10° W 22:42:37 73° N 22:45:55 10° ENE visible
26 Jul -3.8 00:15:57 10° WNW 00:19:15 79° NNE 00:20:00 49° E visible
26 Jul -1.1 01:52:33 10° W 01:52:38 10° W 01:52:38 10° W visible
26 Jul -3.8 21:47:09 10° WSW 21:50:26 88° NNW 21:53:44 10° ENE visible
26 Jul -3.6 23:23:46 10° W 23:27:03 69° N 23:29:19 18° E visible
27 Jul -2.2 01:00:18 10° WNW 01:01:57 26° W 01:01:57 26° W visible
27 Jul -3.5 22:31:32 10° W 22:34:49 66° N 22:38:06 10° E visible
28 Jul -4.0 00:08:05 10° WNW 00:11:19 74° SSW 00:11:19 74° SSW visible
28 Jul -3.5 21:39:18 10° W 21:42:35 70° N 21:45:52 10° ENE visible
28 Jul -3.9 23:15:54 10° WNW 23:19:12 85° NNE 23:20:44 29° E visible
29 Jul -1.4 00:52:33 10° W 00:53:21 15° W 00:53:21 15° W visible
29 Jul -3.6 22:23:41 10° WNW 22:26:58 72° N 22:30:09 11° E visible
30 Jul -3.0 00:00:14 10° W 00:02:47 39° WSW 00:02:47 39° WSW visible
30 Jul -3.9 23:07:59 10° WNW 23:11:14 66° SSW 23:12:14 39° SE visible
31 Jul -3.9 22:15:44 10° WNW 22:19:01 88° SSW 22:21:42 15° ESE visible
31 Jul -2.1 23:52:27 10° W 23:54:21 22° WSW 23:54:21 22° WSW visible
